GFSMA_prec_radar_108.txt.gz
Reflectivity
-20 -20 -20 -20 -20 -20 -20 -20 -20 -20 -20 -20 -20 -20 -20 -20 -20 -20 -20 33 5 26 -0 2 7 3 -20 -20 8 11 9 15 15 19 15 12 13 12 5 16 11 -4 -4
-20 -20 -20 -20 -20 -20 -20 -20 -20 -20 -20 -20 -20 -20 -20 -20 -20 -20 -20 -17 32 29 31 22 -1 10 8 -20 2 9 6 6 13 18 15 15 13 14 14 12 7 -8 -19
-18 -20 -20 -20 -20 -20 -20 -20 -20 -20 -20 -20 -20 -20 -20 -20 -20 -20 -8 33 32 28 29 21 8 11 -11 13 10 10 15 3 13 16 19 15 15 16 16 13 -2 -8 -20
-11 7 8 -20 -20 -20 -20 -20 -20 -20 -20 -20 -20 -20 -20 -20 -20 10 8 31 28 27 26 26 -18 7 14 15 11 15 11 5 14 15 17 10 9 5 5 1 -0 -20 -20
-8 -20 1 -12 -20 -8 -20 -20 -20 -20 -20 -20 1 11 -14 -20 11 20 17 25 29 36 23 19 -20 -20 -12 10 17 12 14 12 12 15 16 17 3 4 2 -7 -3 -20 -20
12 7 -20 -14 -0 11 -12 -20 -20 -20 -20 -13 -6 7 9 11 17 -0 22 22 15 37 34 -19 -18 1 -20 -2 14 11 15 19 15 14 15 14 16 5 5 -20 -20 -20 -20
-20 -2 9 -20 5 2 15 -5 -20 4 14 6 13 -17 16 8 -15 22 4 20 -17 32 39 27 -19 3 -6 -19 15 13 15 17 18 19 19 15 15 15 7 -6 -20 -20 -20
-20 -1 6 -20 -20 -19 -10 6 -20 -13 17 15 2 -20 -1 -13 18 6 21 -2 -11 19 24 15 -18 5 6 -2 -8 14 15 12 16 13 13 8 1 6 15 5 0 1 2
-19 -20 -20 -20 -20 -7 -16 1 -3 1 6 -16 -10 -20 3 -10 -20 -18 11 10 11 12 24 23 4 -0 -16 6 -17 4 14 14 13 11 17 16 6 -3 17 10 5 3 -0
-20 -20 -20 -20 -20 4 5 13 10 13 -15 -18 -20 -1 -20 -20 -9 -16 -10 8 34 25 29 22 -13 6 -17 -0 -6 -20 -2 12 15 14 9 12 -7 -19 14 -1 4 -10 -4
-4 -20 -20 -20 -19 6 22 10 17 14 -2 -14 -18 -2 3 -20 13 17 20 23 30 29 26 19 -16 -14 2 -2 13 -20 -20 -20 -20 -6 13 11 5 6 -5 3 6 -3 -20
-15 -9 -19 -20 -20 -5 -1 15 6 14 8 4 1 8 0 -8 2 -7 -9 30 27 27 24 35 8 -10 6 -19 -16 -20 -20 -20 -20 -20 -20 -6 13 7 7 8 2 -18 -20
-10 -20 2 -20 -20 -20 10 15 10 13 15 7 10 11 9 7 7 -20 3 27 15 20 22 34 20 19 -1 -16 -20 -20 -20 -20 -20 -20 -20 -20 -20 4 8 12 -12 0 5
-18 -19 -12 -3 -20 -20 16 15 13 19 14 12 14 6 9 -4 -3 1 -2 3 28 23 20 16 26 24 7 -5 -20 -20 -20 -20 -20 -20 -20 -20 -20 -20 -20 -20 -20 -20 -20
-14 26 -14 12 -18 11 9 15 12 16 14 17 16 5 10 -17 -2 -1 -6 -1 5 13 29 18 -2 16 -0 8 -20 -20 -20 -20 -20 -20 -20 -20 -20 -20 -20 -20 -20 -20 -20
-17 -15 -18 -8 -1 16 16 18 17 16 20 17 2 17 19 9 6 -10 -3 18 -9 29 8 14 15 22 8 -20 -16 -20 -20 -20 -20 -20 -20 -20 -20 -20 -20 -20 -20 -20 -20
-20 7 -20 8 -3 4 9 15 13 7 -8 -2 17 1 -11 -1 13 9 -19 4 21 14 6 21 12 31 19 -10 -6 -13 -20 -20 -20 -20 -20 -20 -20 -20 -20 -20 -20 -20 -20
5 -20 -14 13 4 23 1 -3 2 -3 12 10 -5 11 -10 12 22 0 7 4 24 14 33 21 20 13 -4 -4 11 8 -3 -20 -20 -20 -20 -20 -20 -20 -20 -20 -20 -20 -20
-9 12 10 -0 18 7 9 -7 -5 -10 11 7 16 11 25 23 7 21 27 0 2 7 20 23 23 25 -2 17 8 -20 -20 -20 -20 -20 -20 -20 -20 -13 -20 -3 -20 -20 -20
28 25 11 8 -11 4 -3 -20 5 -12 -20 -20 -20 1 8 17 10 26 11 30 -5 15 28 24 14 28 18 25 21 -15 -20 -20 -20 -20 -20 -19 -2 -20 -20 -20 -20 -20 -6
25 15 -1 -9 10 7 9 -3 -19 -20 -20 -20 -20 3 -18 22 7 23 13 28 24 22 24 28 24 27 24 17 15 7 -17 -20 -12 -11 4 13 -8 -17 -16 7 -20 -1 -3
20 12 -20 -14 -3 15 18 12 -3 -20 -20 -20 -20 -2 14 26 5 22 31 29 29 29 24 19 16 31 22 6 23 34 21 13 14 18 21 30 20 22 16 17 -20 -16 -2
3 6 14 16 14 13 16 12 7 -17 -20 -20 -20 -1 28 29 30 32 33 33 33 29 23 18 28 25 31 25 14 28 29 29 26 20 22 25 25 23 26 25 3 6 1
13 18 21 22 13 12 11 9 16 2 -16 -10 -16 4 14 29 24 31 31 31 31 30 32 25 25 31 35 34 33 29 30 31 30 29 25 25 25 24 28 18 21 5 7
-2 16 11 15 -2 -1 18 -1 10 -19 -11 -12 3 -2 5 31 33 31 23 21 36 36 41 38 34 31 34 33 32 30 29 30 31 29 26 25 23 27 22 4 20 30 20
14 26 11 12 14 8 32 18 9 10 22 -3 -17 -2 14 8 27 26 29 31 32 36 37 36 36 35 35 32 32 29 28 31 31 32 26 23 28 21 16 10 13 9 7

GFSMA_prec_radar_111.txt.gz
Reflectivity
-20 -20 -8 -14 4 6 -20 -8 -20 -10 -20 -20 -20 -20 -20 -20 -20 -20 -20 13 -10 31 24 15 9 9 -17 -20 -20 -19 -20 -16 9 1 15 11 13 -0 6 7 11 -6 -20
-20 -20 -20 -20 -20 -20 -20 -20 -20 -20 -20 -20 -20 -20 -20 -20 -20 -20 -20 -20 -16 32 31 30 11 9 -14 -20 -20 -16 -3 6 -2 -19 11 16 10 -4 -4 4 9 4 5
0 -20 -20 -20 -20 -20 -20 -20 -20 -20 -20 -20 -19 -20 -20 -20 -20 -20 -20 -20 2 -5 34 32 28 10 4 6 -10 -3 5 -18 11 6 2 15 7 9 4 5 10 -4 1
-20 -17 -20 -6 -20 -20 -20 -20 -20 -20 -20 -20 -2 5 1 -20 -20 -20 -20 -20 -20 12 23 33 41 21 -1 1 11 2 8 13 13 6 -15 14 11 7 7 6 4 -17 -20
-20 -7 -20 1 -15 -20 -20 -20 -20 -20 -16 1 1 -20 -20 -20 -20 -20 -20 -14 4 16 32 24 33 24 -20 -20 -3 -4 3 10 1 11 5 7 10 8 8 -11 -11 -20 -20
-20 8 -15 -18 8 -14 -20 -20 -20 -20 -20 -12 -8 -17 -3 -20 -12 -20 -20 -10 11 30 38 35 26 21 -20 -20 -11 10 8 10 12 11 6 7 7 9 4 -10 -20 -20 -20
-20 11 6 -20 7 -13 -20 -20 -20 -2 -12 -20 -18 3 4 5 1 1 -0 -1 11 24 33 28 31 24 -20 -20 -9 -6 10 11 13 14 12 6 5 9 8 7 -9 3 -5
-20 -20 -7 -20 10 -5 -20 -20 -20 -20 -14 6 -5 -9 3 -2 10 8 8 10 5 16 28 22 35 31 -8 -20 0 4 7 13 -5 11 6 13 6 2 5 13 2 2 -1
-20 -20 -16 -8 -2 5 -20 -20 -20 -20 -20 -17 11 -10 -4 2 -10 4 -0 2 10 23 -8 7 32 31 29 -20 -20 -20 -13 11 9 -11 14 11 6 9 2 7 14 -1 -4
-20 -20 -20 -2 29 11 -20 -20 -20 -20 -20 -20 -16 18 -3 -15 -14 -4 4 8 11 -6 10 18 17 29 22 -5 -20 -20 -20 3 11 7 3 -10 6 1 4 9 5 5 3
-2 -20 -20 -19 11 13 -20 -20 -12 -20 -20 -20 -20 1 -5 -13 -18 -20 -5 -3 -2 7 12 24 3 28 17 -9 6 -20 8 11 7 10 13 5 13 5 -3 6 8 -1 -1
-7 -1 -17 -19 -17 -13 -19 -18 -15 -20 -20 -20 -2 -15 -20 -7 -20 -8 -6 -19 -19 -20 9 5 27 33 25 11 -3 -14 -4 3 -14 -20 -1 14 11 6 -1 2 2 -5 -4
-15 -9 -20 -20 5 -19 -15 -14 -10 -11 -5 -16 -2 12 -11 -20 10 4 4 -11 -13 -10 5 16 16 24 15 -15 -11 -19 -20 -20 -20 -20 -20 -19 11 8 8 8 7 3 4
-20 3 -20 7 -3 1 6 20 -13 4 7 12 3 3 12 -13 6 6 14 -6 -20 0 18 -16 16 18 25 -1 -18 14 -20 -5 -20 -20 -20 -20 -20 -20 -17 7 11 -4 5
-20 -10 14 -9 10 2 20 16 12 9 12 18 7 14 15 11 4 13 14 -20 -0 3 5 -20 24 13 16 12 17 0 -20 -20 -20 -20 -20 -20 -20 -20 -20 -20 -20 -20 -3
-20 -20 11 -9 -3 -8 17 24 13 15 10 5 10 10 14 -6 3 13 0 -12 4 -20 15 4 9 9 18 15 14 23 -20 -20 -20 -20 -20 -20 -20 -20 -20 -20 -20 -20 -20
-20 10 -13 -3 -20 28 15 13 4 10 11 -1 3 12 11 -5 4 -1 8 17 -13 -9 9 20 -9 25 12 12 21 21 -20 -20 -20 -20 -20 -20 -20 -20 -20 -20 -20 -20 -20
-3 11 -4 -20 20 2 -2 -11 -4 5 19 4 17 9 -2 -4 15 -14 13 7 4 -13 6 0 11 25 15 22 17 24 -17 -20 -20 -20 -20 -20 -20 -20 -20 -20 -20 -20 -16
6 32 -2 16 -7 -0 -20 -6 9 15 -10 -15 2 7 19 21 9 7 13 9 2 -13 -7 16 20 15 23 21 21 21 -1 -20 -20 -20 -20 -20 -20 -20 -20 -20 -20 -18 -20
21 27 17 -8 12 10 12 -2 -11 6 -20 -9 -13 -1 -12 3 20 19 8 17 17 -1 -4 22 13 4 30 25 18 18 5 -9 -16 -20 -20 -18 -11 4 9 -6 -18 -15 -8
4 17 16 0 11 23 11 -9 -18 -20 -20 -20 -20 -20 -13 6 -20 -13 9 2 24 1 22 30 14 19 23 24 19 -0 4 17 9 -3 -19 -20 -20 -18 2 -4 -20 -20 -20
19 7 4 22 33 -2 -5 6 0 2 -20 2 -20 -20 -20 -20 11 15 14 20 20 30 21 30 23 19 19 9 28 15 11 20 1 -20 -20 -20 -20 -20 -20 -20 5 0 9
28 28 35 30 1 -1 11 -10 -18 -3 14 -0 -20 -20 -20 -20 -20 -19 14 27 31 26 31 15 13 14 28 26 29 26 22 30 24 13 18 9 -20 -15 12 17 24 22 16
38 25 20 -7 15 3 -9 -7 17 -11 -11 5 -8 -20 -20 -20 -20 -20 6 24 28 19 33 34 29 31 30 21 25 28 33 35 33 29 17 14 1 25 31 24 30 18 14
25 17 -2 16 3 -6 11 15 9 0 -8 -0 -13 -15 -16 -20 -16 -13 15 35 32 31 35 35 34 30 31 29 34 32 31 29 31 33 33 33 28 30 33 29 31 27 25
22 30 22 15 19 4 20 3 -4 -5 -1 -8 15 11 13 10 -13 11 3 5 8 31 24 29 35 34 38 38 37 35 32 31 29 32 31 31 31 30 31 24 28 26 22

GFSMA_prec_radar_114.txt.gz
Reflectivity
3 -13 -20 -20 -20 4 7 4 -5 -11 -20 1 -12 5 17 -20 -20 -20 5 -16 -20 -20 17 25 3 4 -9 -20 -20 -20 -20 -20 -13 -9 -20 -7 10 4 -4 5 -16 7 5
-18 -20 -20 -20 -20 3 1 10 -3 1 2 -7 4 2 16 -20 -20 -20 -20 10 -20 -20 -12 6 26 24 8 10 -20 -20 -20 -5 3 -9 -4 -20 0 10 4 4 -11 0 -14
-4 -20 -20 -18 -20 6 0 1 -14 4 -4 -10 9 4 4 20 2 24 -20 -20 -4 -20 -20 -15 30 36 13 6 -20 -10 -20 1 7 1 6 -7 -0 5 1 6 2 2 0
-19 5 -20 -20 -0 2 7 1 -3 11 7 4 1 -1 3 7 4 1 -20 -20 -20 -20 -8 17 26 47 31 15 -20 -20 -12 8 -16 3 4 2 -20 1 -2 8 8 -15 0
4 2 4 -15 -9 -7 -15 5 -0 -3 13 7 6 -6 4 0 1 11 18 4 -20 -20 -20 8 5 44 41 24 -19 -20 5 10 10 7 1 3 -20 2 -7 5 -6 -20 -20
-20 -9 -17 6 0 -20 -2 5 6 4 2 6 8 5 12 10 11 12 -8 -1 -17 -20 -20 24 10 25 37 28 -20 -14 3 9 8 -12 -0 5 -5 -4 -1 11 7 -2 -7
-20 -20 -20 1 -0 -0 -16 -15 -6 8 13 15 15 14 16 -1 0 8 11 3 6 -20 -18 -17 11 34 36 34 -18 -12 -3 6 10 -7 0 5 6 4 1 10 4 3 1
-20 -20 -20 -9 5 -14 -20 -15 -20 -20 -4 4 -20 5 10 9 3 4 9 2 7 7 1 13 18 30 37 33 6 -20 4 -1 9 11 -7 -20 -9 7 3 0 1 -19 -20
-20 -20 -20 -2 -2 -1 -20 12 5 -20 -3 4 -19 -8 7 -18 -20 10 9 3 7 8 -11 12 14 32 29 36 29 -20 -20 6 -11 -18 12 10 -20 -20 -7 9 12 5 -20
-13 -12 -1 2 2 1 -5 -10 -1 1 -20 -20 -10 7 -20 -20 -8 6 -9 -4 7 11 -1 23 24 6 23 19 29 -15 -20 -20 -20 -6 -5 9 -4 -4 -9 6 6 8 0
2 3 4 5 1 4 -19 -14 12 -5 -12 -10 -20 -18 4 1 -18 -19 10 12 -15 -11 5 2 -3 2 12 19 17 19 -20 -20 -20 -20 -19 14 8 -10 -4 8 9 7 5
5 -20 -10 -13 -1 4 1 -20 -13 -4 -14 4 -19 6 2 -3 -0 -4 11 -15 11 7 4 -4 -13 2 -4 11 30 25 -19 -7 -20 -20 -13 16 9 7 -19 -18 8 7 2
-7 -2 -20 -2 8 -9 0 0 7 -0 -16 -20 -7 6 3 -20 -20 -8 1 10 -0 -8 19 1 -9 -20 -20 9 23 30 18 10 -5 -20 -11 -12 3 7 6 -3 -2 7 0
-5 -0 -19 -20 11 -12 -14 -1 -12 -6 1 -2 5 5 -20 -20 -17 11 -7 19 17 -19 -6 -16 3 -11 -20 16 26 26 31 19 -20 -20 -3 -20 -10 10 6 -20 -20 -20 1
2 11 18 16 1 13 -20 -4 3 -18 -1 25 -10 9 -8 -20 11 1 -3 -20 -17 21 -13 -18 2 0 -18 -2 13 21 24 -20 -20 -0 -10 -20 -20 -20 -5 -1 -11 -11 5
14 12 2 5 -4 26 -12 -19 -8 -2 15 5 -2 3 -0 -1 2 5 8 -9 -14 10 8 -18 -20 -11 -5 4 21 18 20 15 -7 -15 -20 -20 -20 -20 -20 -20 -20 -6 2
30 14 16 8 -6 13 14 4 -13 -10 26 -6 -7 -13 0 0 -14 -17 2 8 15 16 8 -20 -15 -16 -20 11 14 13 14 19 2 -20 -20 -20 -20 -20 -20 -20 -20 -20 -20
15 -20 5 -16 7 1 6 13 -16 16 19 16 -20 5 -18 -14 19 16 23 9 4 11 13 16 3 -8 -20 4 4 10 21 2 20 -4 -20 -20 -20 -20 -20 -20 -20 -20 -20
7 14 17 23 32 28 15 23 27 23 29 6 2 8 21 22 17 6 -9 10 9 9 8 3 -16 -8 -15 -0 9 19 22 24 13 24 -18 -20 -20 -20 -20 -20 -20 -20 -20
30 32 27 23 -7 -10 -8 -2 14 7 -10 21 10 -3 -1 5 9 13 12 -18 0 11 7 6 2 14 10 -20 -7 22 27 31 31 4 2 -16 -20 -20 -20 -20 -20 -20 -20
29 29 19 7 18 10 5 14 21 11 18 19 14 -1 -5 -5 -12 -9 -19 3 21 13 14 10 13 -5 7 -12 3 9 23 22 23 20 24 18 -20 -20 -20 -20 -20 -19 -18
12 16 5 12 23 3 26 26 26 26 23 14 -20 -20 -20 -14 -20 -20 -20 -20 -19 -6 15 15 -4 10 2 13 13 20 13 22 16 -3 24 14 14 10 7 -19 10 8 8
27 24 19 18 26 20 21 17 20 29 16 -15 -20 -20 -20 -20 -13 -20 -20 -20 -13 13 15 18 31 14 8 23 22 27 20 21 15 15 26 34 32 30 21 7 18 16 15
26 18 16 28 34 39 30 37 34 3 -20 -20 -20 -18 -12 -5 -7 -19 -14 -20 -20 -20 -20 3 25 25 30 13 1 30 19 27 28 28 30 35 35 31 29 2 20 19 18
34 32 33 28 37 26 27 18 20 -11 -19 -12 -7 -6 -19 -17 -20 -20 -20 -20 -20 -20 3 -17 21 30 27 28 29 32 36 33 34 30 28 30 34 32 27 17 19 25 31
31 31 27 26 31 28 22 18 13 5 18 27 17 -6 6 -11 -8 -19 -20 -20 -20 -20 -20 -11 18 27 31 36 37 35 36 32 32 36 34 31 35 32 33 21 21 33 31

GFSMA_prec_radar_117.txt.gz
Reflectivity
-20 -20 -20 -20 -20 -19 -20 8 -18 -20 -20 -20 -20 -20 -20 -20 -20 -16 -1 -20 -20 -20 -20 -20 -16 9 -20 -15 -20 -20 -20 -20 -20 -20 -20 -20 -20 9 9 -19 -20 -20 -20
-20 -20 -20 -20 -20 -20 -20 -3 8 -20 -15 -20 -7 -20 -20 -20 -20 -16 9 -17 -20 -20 -20 -5 -3 4 12 24 7 12 -20 -20 -20 -20 -20 -6 -9 11 9 9 -20 -1 -20
-20 -20 -20 -20 -20 -20 -20 -10 11 -20 -3 10 8 6 -20 -20 -20 -17 5 -20 -20 -20 -20 -20 -14 32 26 33 24 26 -20 -20 -15 -0 -3 -17 -8 11 -17 9 9 12 4
-20 -20 -9 -20 -20 -20 -20 11 8 10 -1 13 7 10 2 0 -20 -20 -20 -20 -20 -15 -19 -20 -20 -20 -12 38 40 44 -8 -1 8 4 12 3 -4 7 -17 -5 10 7 2
-9 -20 -12 -7 -20 -20 -20 8 10 -0 9 11 13 13 12 -16 7 -20 -20 -18 -19 4 7 -20 -20 -20 -2 27 33 31 8 -20 -2 -4 5 8 8 0 -20 3 8 10 5
-20 1 -20 3 -1 -20 -0 7 9 8 5 -8 -19 -3 6 4 -20 -20 -20 -20 -20 -20 -20 -20 -20 -20 9 18 32 24 9 -1 -15 9 2 7 8 4 -2 -1 -10 -4 -16
-20 0 -20 -20 -20 0 -19 6 5 11 7 12 1 11 9 4 -16 7 -20 -20 -20 2 -9 -11 12 -20 -1 17 14 35 20 9 7 9 -20 -19 8 4 -4 -20 -3 -3 -20
-20 -20 -20 -20 3 -1 -20 -2 7 10 12 10 10 12 -15 7 -15 1 -20 -20 -20 -20 8 13 12 3 1 -3 8 29 26 12 11 5 -8 -11 -9 2 -20 -20 4 -3 -2
-1 -20 -20 -20 -20 -1 0 -20 3 4 7 14 4 -12 -9 -20 -20 -20 -6 -2 6 -9 1 10 6 10 3 -13 19 27 11 12 5 -20 -18 -18 -9 -11 -3 -18 -4 -2 -19
-16 -20 -5 -14 -13 -2 0 -12 5 -13 -16 -15 10 -20 -20 -20 -20 -6 -9 2 7 6 2 5 3 7 9 0 22 30 31 -13 -20 -18 -15 -20 -20 -18 -5 -3 -6 -9 -16
-7 -18 4 6 7 8 3 1 -4 -4 -19 -20 -20 4 5 -19 -19 -20 22 -13 -19 -20 -20 -5 -4 5 -0 -9 21 30 33 25 -9 -20 1 -20 -20 -20 9 5 -15 -3 2
3 5 8 7 5 9 10 6 7 7 -16 -17 11 1 -18 -5 -20 2 2 14 15 7 -20 -10 7 -6 5 0 14 8 22 27 13 -20 -20 4 0 -20 -1 10 -1 -1 4
-10 -3 10 -8 8 -8 -6 7 1 2 -5 -20 -10 3 -4 -20 -20 -10 18 3 8 -20 -15 10 7 4 -19 5 5 -20 -7 15 27 -3 -20 -20 10 -20 -17 -11 -0 -5 2
-20 4 6 7 9 11 2 1 -20 -18 -20 -20 -13 11 12 -19 -20 -8 23 19 19 11 1 -6 -20 -15 -20 -20 8 -20 -20 19 28 14 -20 -20 2 -20 -18 -3 -19 -20 -18
-20 -12 4 -18 7 14 3 -20 -13 -15 -16 -5 6 6 0 4 -13 -20 8 26 22 17 10 -20 -20 -2 -20 -20 1 -16 -20 13 21 19 -5 4 -16 -20 -12 4 10 -6 11
9 -20 11 -9 -3 12 18 19 -11 -19 22 5 2 0 -13 13 15 -20 6 -12 5 22 6 12 -20 -20 -7 -9 -14 -17 -18 -20 16 25 27 24 -12 -20 -8 -12 11 10 9
1 -20 24 -11 -1 15 8 11 20 -11 9 17 -6 4 0 9 5 -12 10 25 22 10 10 -20 -20 -16 -8 3 -9 -20 5 -20 -13 17 6 10 -20 -20 -20 -20 -20 -2 7
20 -12 -20 -4 3 16 16 18 20 23 -6 2 -10 -4 16 10 -5 -1 -17 29 -9 9 6 3 5 6 7 9 5 -9 -20 -20 -10 19 18 -14 -20 -20 -20 -20 -20 -20 -20
38 24 -7 36 26 6 9 -0 8 11 7 16 -3 30 16 10 21 9 20 17 24 1 15 25 -2 -7 18 16 1 -9 -3 -5 -13 28 22 24 -11 -20 -20 -20 -20 -20 -20
23 21 -9 10 28 13 10 13 23 17 26 2 -1 27 28 31 6 0 -7 -5 -2 15 5 16 13 -17 1 -15 7 -16 -20 -20 -19 -10 19 23 19 4 -10 -14 -20 -20 -20
25 22 22 24 17 9 20 19 23 22 28 18 5 2 27 18 -2 11 -20 -20 -20 -20 -16 11 10 9 -2 -6 -2 5 5 1 -16 -12 20 25 13 8 19 21 -20 -20 -20
30 20 21 23 29 31 30 29 21 26 27 22 25 -19 2 21 5 -4 -20 -14 -7 -20 -20 -13 4 11 8 1 2 16 26 28 10 12 23 8 25 32 32 26 8 4 2
24 24 28 20 24 25 28 25 23 25 23 9 14 5 15 1 11 -5 -20 5 -2 -9 -4 -13 -20 -14 13 28 24 20 28 21 -9 17 28 27 17 30 28 32 32 29 26
28 20 25 25 19 25 30 28 24 28 36 37 4 21 26 16 10 -8 -20 -20 -20 -20 -20 -9 -12 -17 -12 -11 23 27 21 23 19 26 16 31 28 27 31 27 29 32 33
34 33 32 31 30 35 26 25 30 30 32 33 20 28 22 2 13 -3 -17 -17 -20 -20 2 -18 -20 -20 -19 -15 -20 3 30 30 26 22 23 25 32 27 32 30 35 32 35
30 34 37 36 28 30 34 22 26 21 28 35 34 26 12 3 9 -19 -5 -20 -20 -19 -20 -20 -20 -10 3 -17 2 0 16 29 24 21 23 33 23 24 26 31 33 36 38

GFSMA_prec_radar_123.txt.gz
Reflectivity
-20 -20 -20 -20 -20 -20 -20 -20 -20 -20 -20 -20 -20 -20 -17 -20 -20 -20 -20 -20 -20 -11 -6 -20 -20 -20 -20 -20 2 23 29 -20 -20 -20 -20 -20 -20 -1 -18 12 14 12 17
-18 -20 -20 -20 -20 -20 -20 -20 -20 -20 -20 -20 -20 -20 5 -19 -20 -20 -20 -20 -20 -8 -20 -20 -20 -20 -20 -20 -20 -20 -20 -18 -20 -20 -20 -20 -20 -4 6 -8 13 11 4
-20 -20 -20 -20 -20 -20 -20 -20 -20 -20 -20 -20 -20 -20 -20 -20 -20 -20 -20 -19 -20 -20 -20 -19 -20 -20 -20 -20 -20 -20 -20 -20 -13 -20 -20 -20 -20 -20 13 13 14 -1 9
-11 -20 2 -20 -20 -20 -20 -20 -20 -20 -20 -20 -20 -20 -20 -20 -20 -20 -20 -20 -20 -20 -20 -20 -20 -20 -20 -20 -20 -20 -20 -20 -20 -20 -20 -20 -20 -20 10 14 17 -14 -4
32 25 -12 -9 -20 4 -20 -20 -20 -20 -20 -20 -20 -20 -20 -20 -20 -20 -20 -20 -20 -20 -20 -20 -20 -20 -20 -20 -15 -20 -20 -9 -20 -16 -9 -20 -20 -3 12 17 18 17 13
24 40 21 -3 12 7 -20 -20 -20 -20 -20 -20 -20 -20 -20 -20 -20 -20 -16 -13 -20 -20 -20 -20 -20 -20 -20 -20 -17 -20 -20 -9 3 -13 16 -20 -20 -5 4 16 17 17 18
23 35 -14 1 13 5 7 -19 -20 -20 -20 -20 -20 -20 -20 -20 -20 1 -20 -20 -20 -20 -20 -20 -20 -20 -20 -20 -20 -20 -20 10 26 27 19 7 -20 -16 10 8 15 15 14
-10 -20 6 36 22 10 22 13 -11 -20 -20 -20 -20 -20 6 -18 -20 -20 -20 -20 -9 -20 -20 -20 -20 -20 -20 -20 -20 -20 1 13 29 31 24 23 -17 -10 -4 7 11 10 14
-20 -20 -10 26 9 33 -8 -20 -10 -20 -20 -20 -20 -20 -14 -20 -20 -20 -20 -20 -20 -20 -20 -20 -20 -20 -20 -20 -20 -14 7 -20 27 27 33 8 -17 -20 -17 4 11 13 12
-20 -20 33 11 14 29 -3 -6 2 -20 24 -17 -20 -20 -20 -20 -20 -20 -20 -20 -20 -20 -20 -20 -20 -20 -20 -20 -20 -19 -13 -20 -20 20 29 24 6 -20 -20 -19 6 7 13
-20 -20 10 -12 35 36 4 34 -8 3 -16 16 -15 -20 -20 -19 -20 -20 -20 -20 -20 -20 -20 -20 -20 -20 -20 -20 -20 -20 -20 -20 -20 -20 -0 26 20 -17 -20 -20 -20 -1 -1
-20 -20 -20 8 -8 35 21 7 29 -4 31 38 15 4 -11 -20 -20 -20 -20 -20 -20 -20 -20 -20 -20 -20 -20 -20 -20 -20 -13 -15 -20 -20 -20 18 20 12 -14 -20 -20 -20 -18
-20 -20 -20 -20 -15 -3 18 23 12 35 42 51 37 34 -11 -19 -20 -20 -20 -20 -20 -20 -20 -20 -20 -20 -20 -20 -20 -20 -14 8 1 -20 -20 -20 13 27 11 -7 -20 -20 -20
-20 -20 -20 -20 -17 -20 -3 3 28 33 32 42 39 19 6 11 -20 -20 -20 18 -20 -20 -20 -11 -9 -14 -20 -20 -20 -20 -20 9 6 7 -19 -20 -20 -16 12 -15 -12 -3 -20
-20 -20 -20 -20 -20 -20 -18 -20 -20 22 29 29 29 35 38 2 16 -20 -20 -20 -13 -20 -20 -20 4 -8 -20 -20 -20 -20 -20 -4 8 9 5 -20 -20 -20 -14 23 19 1 5
-20 -20 -20 -20 -20 -20 -20 -20 -20 -17 31 33 28 31 10 24 -14 -8 -10 -20 -20 -20 -20 -20 9 -20 -7 -20 -20 -20 -20 -20 8 -1 5 5 -20 -20 -20 18 28 24 5
-17 -20 -20 -20 -20 -20 -20 6 19 -17 32 31 38 29 -3 -10 17 20 14 -9 28 -20 -7 -18 21 30 27 -20 -1 9 -20 -20 -13 -2 -20 -3 -1 -10 -18 9 28 30 27
11 4 11 0 7 -20 -20 -20 -20 -20 39 40 30 26 -15 10 -5 16 19 32 -20 -4 -15 -18 13 30 27 29 -16 -0 -20 -20 -20 -17 5 -20 -20 3 -20 -20 17 33 34
20 22 19 -5 -16 -5 -20 -20 -20 -14 17 13 29 28 16 9 15 24 28 32 -10 -3 -0 -20 2 22 31 16 -11 -20 -20 -20 -20 -20 -20 -20 -20 6 10 -6 16 24 10
22 24 18 4 -20 -19 -15 -20 -20 4 14 21 28 28 24 1 11 24 28 20 8 10 -10 -20 -20 -10 27 17 23 -4 10 -17 -20 -19 -20 -20 -20 -20 -20 -8 -15 22 27
12 17 14 -19 -19 -16 16 19 12 17 23 29 25 11 3 12 22 22 28 25 26 -18 3 -5 -17 10 -20 -16 -9 -13 -18 -20 -20 -20 -20 -20 -20 -20 -15 -5 3 8 23
27 37 -1 -1 16 21 12 40 27 41 33 25 26 27 14 30 17 26 20 29 24 24 20 -15 -9 -20 4 -20 -20 -20 -20 -20 10 -20 -4 -14 -20 -20 -20 3 10 29 9
28 22 30 30 34 34 40 45 40 37 41 39 38 25 41 28 30 21 27 17 25 22 7 15 30 -7 -8 -0 -20 -20 -12 -12 -20 4 -10 14 -14 -20 -20 -17 15 24 -8
17 26 27 35 29 37 38 35 37 37 41 33 28 37 18 29 32 25 20 21 8 24 37 37 25 17 19 -3 -20 -20 -20 -20 -20 -20 -20 8 10 -2 8 -11 18 10 -4
14 5 12 9 5 18 19 29 24 32 36 41 33 33 27 33 37 36 20 22 27 31 32 35 31 20 6 9 -9 -19 -20 -20 -20 -20 -20 -17 -10 -18 -20 -11 7 21 16
-4 7 7 -2 1 10 9 8 20 16 19 20 25 33 33 37 38 37 32 34 33 34 26 26 19 25 21 16 12 -20 -20 -20 -20 -20 -20 -20 -20 -20 -3 -8 -3 10 5